[[{"header":{"parameterUnit":"m.s-1","parameterCategory":2,"la1":30.2991,"la2":30.254,"lo1":-89.0895,"lo2":-89.0444,"dy":0.0017,"dx":0.0017,"nx":28,"ny":28,"refTime":"2025-07-23T09:00:00:Z","depth":"0","parameterNumber":2,"parameterNumberName":"U-component_of_CURRENTS"},"data":[0,0,0,0,0,0,0,0,0,0,0,0,0,0,0,0,0,0,0,0,0,0,0,0,0,0,0,0,0,0,0,0,0,0,0,0,0,0,0,0,0,0,0,0,0,0,0,0,0,0,0,0,0,0,0,0,0,0,-0.1756,-0.1756,0,-0.1699,-0.1698,-0.1697,-0.164,-0.164,-0.164,-0.1641,-0.1431,-0.1426,-0.142,0,0,0,0,0,0,0,0,0,0,0,0,0,-0.1679,-0.1681,-0.1756,-0.1756,-0.1756,-0.17,-0.1698,-0.1696,-0.164,-0.164,-0.164,-0.1641,-0.1433,-0.1426,-0.142,0,0,0,0,0,0,0,0,0,0,0,0,0,-0.1669,-0.1681,-0.1756,-0.1728,-0.1725,-0.17,-0.1698,-0.1696,-0.164,-0.164,-0.164,-0.1641,-0.1435,-0.1427,-0.1419,-0.1365,0,0,-0.1393,-0.1389,0,0,0,0,0,0,0,0,-0.1669,-0.167,-0.1732,-0.173,-0.1727,-0.1685,-0.1595,-0.1581,-0.164,-0.1663,-0.1641,-0.1641,-0.1507,-0.1493,-0.1472,-0.1356,-0.1347,-0.1392,-0.1387,-0.1383,-0.1381,0,0,0,0,0,0,0,-0.167,-0.1672,-0.1725,-0.1732,-0.1729,-0.1672,-0.1671,-0.1591,-0.1576,-0.1661,-0.1659,-0.1667,-0.1504,-0.148,-0.1466,-0.1343,-0.1392,-0.1385,-0.138,-0.1376,-0.1247,-0.1249,0,0,0,0,0,0,-0.1702,-0.1674,-0.1727,-0.1724,-0.1707,-0.1674,-0.1673,-0.1691,-0.158,-0.1567,-0.1667,-0.1665,-0.1495,-0.1476,-0.1459,-0.1437,-0.1384,-0.1376,-0.1371,-0.1246,-0.1248,-0.1249,0,0,0,0,0,0,-0.1701,-0.1708,-0.1729,-0.1703,-0.1703,-0.1678,-0.1697,-0.169,-0.1665,-0.1588,-0.157,-0.1651,-0.1494,-0.1471,-0.1401,-0.1427,-0.1372,-0.1364,-0.1244,-0.1246,-0.1249,-0.1362,0,0,0,0,0,0,-0.1699,-0.1708,-0.1722,-0.1706,-0.1706,-0.1712,-0.1698,-0.1689,-0.1675,-0.167,-0.1568,-0.1549,-0.1492,-0.1414,-0.1393,-0.1414,-0.1358,-0.1242,-0.1245,-0.1248,-0.1356,-0.1368,-0.1378,0,0,0,0,0,-0.1697,-0.1717,-0.1723,-0.1729,-0.173,-0.1713,-0.1705,-0.1681,-0.1674,-0.1658,-0.1605,-0.1552,-0.142,-0.1408,-0.1382,-0.1402,-0.124,-0.1244,-0.1248,-0.1352,-0.1366,-0.1378,0,0,0,0,0,0,-0.1684,-0.1714,-0.172,-0.1747,-0.1734,-0.1707,-0.1696,-0.1682,-0.1628,-0.1623,-0.1547,-0.1523,-0.1481,-0.1424,-0.1413,-0.138,-0.1331,-0.133,-0.1419,-0.1431,-0.1442,-0.1462,-0.1351,0,0,0,0,0,-0.1695,-0.1719,-0.1726,-0.1743,-0.1743,-0.1719,-0.1708,-0.1694,-0.1656,-0.1633,-0.1572,-0.1517,-0.1477,-0.144,-0.1385,-0.1342,-0.132,-0.1348,-0.136,-0.1369,-0.1372,-0.1387,-0.14,-0.1261,-0.1261,-0.1261,0,0,-0.1691,-0.1715,-0.1724,-0.1742,-0.1728,-0.1732,-0.1709,-0.1697,-0.1698,-0.1615,-0.1582,-0.1539,-0.1474,-0.1446,-0.1423,-0.1398,-0.1398,-0.1374,-0.1382,-0.1379,-0.1392,-0.1406,-0.1418,-0.1264,-0.1263,-0.1263,0,0,-0.1691,-0.172,-0.1734,-0.1736,-0.1739,-0.1733,-0.1735,-0.1712,-0.1698,-0.1663,-0.1631,-0.1619,-0.1514,-0.1512,-0.1489,-0.1526,-0.1457,-0.1496,-0.1558,-0.1574,-0.1585,-0.1595,-0.1592,-0.16,-0.1501,-0.1502,-0.1502,0,-0.168,-0.1717,-0.1727,-0.1743,-0.1754,-0.174,-0.175,-0.1737,-0.1695,-0.1695,-0.1664,-0.1614,-0.1563,-0.1576,-0.1592,-0.1554,-0.1527,-0.1512,-0.1589,-0.1598,-0.1606,-0.16,-0.1608,-0.1507,-0.1507,-0.1506,-0.1506,0,-0.1691,-0.1721,-0.1727,-0.1758,-0.1765,-0.1768,-0.1775,-0.1773,-0.1761,-0.1754,-0.1755,-0.1712,-0.1689,-0.1686,-0.1635,-0.1678,-0.1629,-0.1604,-0.1558,-0.1628,-0.1616,-0.1622,-0.1516,-0.1514,-0.1512,-0.1511,0,0,-0.1656,-0.1723,-0.1723,-0.1743,-0.1779,-0.1777,-0.1809,-0.1826,-0.1839,-0.1827,-0.1845,-0.1832,-0.182,-0.1797,-0.1766,-0.178,-0.1822,-0.1706,-0.1704,-0.1706,-0.1827,-0.1778,-0.178,-0.1792,-0.1794,-0.1795,-0.1798,0,-0.1653,-0.1695,-0.1735,-0.1762,-0.1781,-0.1812,-0.1836,-0.1856,-0.186,-0.1868,-0.1888,-0.1873,-0.1859,-0.1841,-0.1869,-0.1807,-0.1841,-0.1822,-0.1755,-0.1753,-0.1705,-0.1787,-0.1584,-0.1567,-0.1803,-0.1804,-0.1805,0,-0.1641,-0.1682,-0.1719,-0.1777,-0.1786,-0.1802,-0.1851,-0.1865,-0.1904,-0.1907,-0.1946,-0.1929,-0.196,-0.1929,-0.1937,-0.1908,-0.1886,-0.186,-0.1859,-0.1776,-0.1717,-0.1534,-0.1569,-0.1469,-0.1814,-0.1813,-0.1813,0,-0.1598,-0.1658,-0.1693,-0.1714,-0.1781,-0.1803,-0.1824,-0.1872,-0.1872,-0.1924,-0.192,-0.1976,-0.1955,-0.1973,-0.194,-0.1917,-0.1932,-0.19,-0.1861,-0.1855,-0.1652,-0.1627,-0.1584,-0.1943,-0.1943,-0.1943,-0.1943,0,-0.1582,-0.1599,-0.1671,-0.169,-0.1702,-0.1768,-0.1774,-0.1813,-0.1855,-0.1844,-0.192,-0.192,-0.1954,-0.1963,-0.1958,-0.1928,-0.1962,-0.1887,-0.1865,-0.1687,-0.1666,-0.1543,-0.1603,-0.1943,-0.1943,-0.1943,-0.1943,0,-0.1515,-0.1576,-0.1599,-0.1671,-0.1679,-0.1677,-0.1703,-0.1699,-0.1769,-0.1761,-0.177,-0.1846,-0.1874,-0.193,-0.1939,-0.1917,-0.187,-0.1912,-0.1698,-0.1651,-0.1504,-0.158,-0.1647,-0.1611,-0.1851,-0.185,-0.1849,0,-0.1484,-0.1497,-0.1544,-0.1528,-0.1551,-0.1558,-0.1545,-0.1626,-0.1622,-0.1701,-0.1679,-0.1747,-0.1788,-0.183,-0.1796,-0.182,-0.185,-0.1647,-0.1597,-0.1488,-0.1555,-0.1639,-0.1609,-0.1367,-0.1362,-0.1358,-0.1355,0,-0.1406,-0.142,-0.1428,-0.14,-0.1385,-0.1374,-0.1374,-0.1373,-0.1459,-0.1495,-0.1543,-0.1604,-0.1647,-0.158,-0.1624,-0.1613,-0.1567,-0.1569,-0.1497,-0.1228,-0.1275,-0.1226,-0.1375,-0.132,-0.1324,-0.1326,-0.1328,-0.133,-0.1305,-0.1277,-0.1273,-0.1235,-0.1213,-0.1185,-0.1138,-0.1186,-0.1205,-0.125,-0.1375,-0.1411,-0.1327,-0.1355,-0.1364,-0.1136,-0.1372,-0.1053,-0.117,-0.1274,-0.1206,-0.1296,-0.1199,-0.1201,-0.1204,-0.1206,-0.1208,0,-0.1173,-0.1148,-0.1099,-0.1052,-0.0973,-0.102,-0.1003,-0.0969,-0.0977,-0.1055,-0.1132,-0.1005,-0.0936,-0.0869,-0.065,-0.0669,-0.0685,-0.0713,-0.0723,-0.0724,-0.0771,-0.0704,-0.0443,-0.0443,-0.0443,-0.0443,-0.0443,-0.0443,-0.1091,-0.1014,-0.0997,-0.0834,-0.0787,-0.0676,-0.065,-0.0659,-0.0686,-0.0653,-0.0589,-0.0629,-0.0437,-0.0441,-0.0338,-0.0355,-0.0426,-0.0494,-0.0635,-0.0563,-0.06,-0.0636,-0.0576,-0.0293,-0.0293,-0.041,-0.0412,-0.0413]},{"header":{"parameterUnit":"m.s-1","parameterCategory":2,"la1":30.2991,"la2":30.254,"lo1":-89.0895,"lo2":-89.0444,"dy":0.0017,"dx":0.0017,"nx":28,"ny":28,"refTime":"2025-07-23T09:00:00:Z","depth":"0","parameterNumber":3,"parameterNumberName":"V-component_of_CURRENTS"},"data":[0,0,0,0,0,0,0,0,0,0,0,0,0,0,0,0,0,0,0,0,0,0,0,0,0,0,0,0,0,0,0,0,0,0,0,0,0,0,0,0,0,0,0,0,0,0,0,0,0,0,0,0,0,0,0,0,0,0,-0.0371,-0.037,0,-0.0292,-0.0291,-0.029,-0.0239,-0.0239,-0.0238,-0.0238,-0.0219,-0.0219,-0.0219,0,0,0,0,0,0,0,0,0,0,0,0,0,-0.0439,-0.0438,-0.0371,-0.037,-0.0369,-0.0292,-0.0291,-0.029,-0.0239,-0.0239,-0.0238,-0.0238,-0.0219,-0.0219,-0.0219,0,0,0,0,0,0,0,0,0,0,0,0,0,-0.0391,-0.0438,-0.0372,-0.0333,-0.0329,-0.0292,-0.0291,-0.029,-0.0239,-0.0239,-0.0238,-0.0237,-0.0219,-0.0219,-0.0219,-0.0232,0,0,-0.0219,-0.0219,0,0,0,0,0,0,0,0,-0.0394,-0.0389,-0.034,-0.0336,-0.0331,-0.0273,-0.0308,-0.0273,-0.024,-0.0275,-0.0238,-0.0237,-0.0242,-0.024,-0.0228,-0.0232,-0.0231,-0.0219,-0.0219,-0.0219,-0.0219,0,0,0,0,0,0,0,-0.0398,-0.0392,-0.0342,-0.0339,-0.0333,-0.0306,-0.0299,-0.0301,-0.0266,-0.0272,-0.0268,-0.0256,-0.024,-0.0229,-0.0228,-0.023,-0.0219,-0.0219,-0.0219,-0.0219,-0.0274,-0.0275,0,0,0,0,0,0,-0.0407,-0.0396,-0.0344,-0.0339,-0.0359,-0.0305,-0.0298,-0.0294,-0.0265,-0.0258,-0.0257,-0.0254,-0.0229,-0.0228,-0.0227,-0.0264,-0.0219,-0.0219,-0.0219,-0.0272,-0.0274,-0.0276,0,0,0,0,0,0,-0.0409,-0.0403,-0.0347,-0.0364,-0.0354,-0.0305,-0.0301,-0.0293,-0.0277,-0.0252,-0.0247,-0.025,-0.0229,-0.0227,-0.024,-0.0262,-0.0219,-0.0218,-0.027,-0.0273,-0.0275,-0.0324,0,0,0,0,0,0,-0.0411,-0.0405,-0.0407,-0.0365,-0.0354,-0.034,-0.0301,-0.0291,-0.027,-0.0266,-0.0245,-0.0242,-0.0228,-0.024,-0.024,-0.0261,-0.0218,-0.0268,-0.0271,-0.0274,-0.032,-0.0328,-0.0334,0,0,0,0,0,-0.0414,-0.0418,-0.0408,-0.0401,-0.0358,-0.034,-0.0334,-0.0296,-0.0271,-0.0277,-0.0262,-0.0242,-0.0258,-0.0242,-0.0241,-0.0262,-0.0267,-0.0271,-0.0274,-0.0317,-0.0326,-0.0334,0,0,0,0,0,0,-0.0445,-0.0411,-0.04,-0.0392,-0.0376,-0.0332,-0.0324,-0.03,-0.029,-0.0283,-0.0259,-0.0257,-0.0278,-0.0268,-0.025,-0.0289,-0.0261,-0.0264,-0.0294,-0.0302,-0.0309,-0.0331,-0.0218,0,0,0,0,0,-0.0455,-0.0453,-0.0419,-0.0417,-0.0407,-0.0368,-0.0354,-0.0332,-0.0313,-0.0305,-0.0291,-0.0285,-0.0292,-0.0294,-0.0298,-0.0318,-0.0341,-0.0333,-0.034,-0.0346,-0.0365,-0.0395,-0.0406,-0.0287,-0.0287,-0.0287,0,0,-0.0469,-0.0448,-0.0448,-0.0425,-0.0403,-0.041,-0.0358,-0.0343,-0.0356,-0.0309,-0.0323,-0.0308,-0.0304,-0.0326,-0.0335,-0.0319,-0.0402,-0.035,-0.0355,-0.0371,-0.04,-0.0411,-0.0422,-0.0289,-0.0289,-0.0288,0,0,-0.05,-0.0476,-0.0488,-0.0479,-0.0453,-0.0435,-0.0434,-0.0399,-0.039,-0.0399,-0.0374,-0.0373,-0.0377,-0.0378,-0.038,-0.0429,-0.0436,-0.043,-0.0479,-0.0508,-0.0518,-0.0527,-0.0614,-0.063,-0.0432,-0.0432,-0.0432,0,-0.0519,-0.0532,-0.0491,-0.0502,-0.0507,-0.0453,-0.0481,-0.0465,-0.0443,-0.0454,-0.0416,-0.0434,-0.0405,-0.0454,-0.0455,-0.0444,-0.0482,-0.0444,-0.0517,-0.0526,-0.0534,-0.062,-0.0637,-0.0435,-0.0435,-0.0434,-0.0434,0,-0.0563,-0.0577,-0.0581,-0.0587,-0.0588,-0.0598,-0.0577,-0.0579,-0.0554,-0.0543,-0.0572,-0.0535,-0.0549,-0.0533,-0.0498,-0.0552,-0.0571,-0.0521,-0.0494,-0.0549,-0.0637,-0.0654,-0.0439,-0.0438,-0.0437,-0.0436,0,0,-0.0601,-0.0614,-0.0617,-0.0651,-0.0637,-0.0651,-0.0672,-0.0692,-0.0729,-0.069,-0.0749,-0.0709,-0.0678,-0.0679,-0.0642,-0.0646,-0.0718,-0.0605,-0.0605,-0.069,-0.0839,-0.0692,-0.0697,-0.0676,-0.0679,-0.068,-0.0892,0,-0.0655,-0.0709,-0.0698,-0.0769,-0.0802,-0.0779,-0.0819,-0.0827,-0.082,-0.086,-0.0818,-0.085,-0.0741,-0.0752,-0.0736,-0.0721,-0.076,-0.067,-0.0775,-0.078,-0.0638,-0.0708,-0.0508,-0.0663,-0.0908,-0.0911,-0.0913,0,-0.0705,-0.0741,-0.0814,-0.0887,-0.0901,-0.0936,-0.1001,-0.1027,-0.1052,-0.105,-0.1051,-0.1022,-0.1027,-0.0921,-0.0941,-0.0891,-0.0878,-0.086,-0.0867,-0.0721,-0.0661,-0.064,-0.0684,-0.0387,-0.0939,-0.0937,-0.0935,0,-0.0765,-0.0829,-0.0899,-0.0917,-0.0978,-0.1021,-0.1056,-0.1088,-0.1143,-0.1176,-0.1229,-0.1208,-0.1236,-0.1186,-0.1098,-0.104,-0.1137,-0.1056,-0.0944,-0.0937,-0.0782,-0.0754,-0.0541,-0.1109,-0.1108,-0.1107,-0.1107,0,-0.0828,-0.0886,-0.0936,-0.0977,-0.1088,-0.1098,-0.1214,-0.1233,-0.1303,-0.14,-0.1334,-0.1426,-0.1297,-0.1311,-0.1208,-0.1128,-0.123,-0.0983,-0.0972,-0.0796,-0.0768,-0.051,-0.0451,-0.1115,-0.1114,-0.1112,-0.1111,0,-0.0874,-0.0903,-0.0995,-0.1079,-0.1117,-0.1192,-0.1316,-0.1402,-0.1444,-0.1576,-0.1601,-0.1631,-0.1628,-0.1513,-0.1471,-0.1286,-0.1053,-0.1174,-0.0993,-0.0951,-0.0469,-0.0425,-0.0404,-0.0262,-0.1076,-0.1074,-0.1072,0,-0.0895,-0.0944,-0.1062,-0.1131,-0.1173,-0.1287,-0.1382,-0.1461,-0.1559,-0.1712,-0.1801,-0.1845,-0.1872,-0.1745,-0.1426,-0.1242,-0.1063,-0.0928,-0.0728,-0.0425,-0.0372,-0.0387,-0.027,-0.0597,-0.0591,-0.0586,-0.0583,0,-0.0935,-0.0973,-0.1043,-0.1186,-0.1298,-0.1439,-0.1574,-0.1671,-0.1782,-0.1898,-0.2057,-0.2097,-0.1938,-0.161,-0.1284,-0.111,-0.0656,-0.0818,-0.0547,-0.001,0.0018,0.0158,-0.0529,-0.054,-0.0544,-0.0547,-0.0549,-0.0551,-0.0945,-0.1006,-0.1098,-0.1233,-0.1374,-0.154,-0.1628,-0.1786,-0.1942,-0.2063,-0.2169,-0.2122,-0.1598,-0.1096,-0.0932,-0.0213,-0.0413,0.0074,0.0071,0.0004,0.0274,-0.0326,-0.0261,-0.0263,-0.0265,-0.0267,-0.0269,0,-0.0948,-0.1022,-0.1144,-0.1301,-0.1441,-0.1523,-0.1722,-0.1794,-0.1945,-0.2021,-0.2112,-0.1529,-0.0996,-0.0461,0.0429,0.0729,0.0748,0.0871,0.0939,0.0996,0.0461,0.0639,0.0958,0.0958,0.0957,0.0957,0.0957,0.0956,-0.0953,-0.1047,-0.1116,-0.131,-0.1421,-0.1572,-0.166,-0.178,-0.182,-0.1698,-0.1413,-0.1215,-0.0279,0.0733,0.1518,0.1569,0.1743,0.1649,0.1675,0.1417,0.1346,0.1277,0.1472,0.196,0.1961,0.2309,0.2313,0.2315]}],[{"header":{"parameterUnit":"m.s-1","parameterCategory":2,"la1":30.2991,"la2":30.254,"lo1":-89.0895,"lo2":-89.0444,"dy":0.0017,"dx":0.0017,"nx":28,"ny":28,"refTime":"2025-07-23T09:00:00:Z","depth":"2","parameterNumber":2,"parameterNumberName":"U-component_of_CURRENTS"},"data":[0,0,0,0,0,0,0,0,0,0,0,0,0,0,0,0,0,0,0,0,0,0,0,0,0,0,0,0,0,0,0,0,0,0,0,0,0,0,0,0,0,0,0,0,0,0,0,0,0,0,0,0,0,0,0,0,0,0,-0.2156,-0.2158,0,-0.2322,-0.2324,-0.2326,-0.2458,-0.2459,-0.246,-0.2461,-0.2683,-0.2687,-0.2692,0,0,0,0,0,0,0,0,0,0,0,0,0,-0.1921,-0.1925,-0.2156,-0.2158,-0.216,-0.2322,-0.2324,-0.2327,-0.2458,-0.2459,-0.246,-0.2462,-0.2681,-0.2687,-0.2693,0,0,0,0,0,0,0,0,0,0,0,0,0,-0.2051,-0.1926,-0.2156,-0.2243,-0.2252,-0.2321,-0.2325,-0.2328,-0.2458,-0.2459,-0.2461,-0.2462,-0.2679,-0.2686,-0.2694,-0.2707,0,0,-0.2716,-0.2719,0,0,0,0,0,0,0,0,-0.2043,-0.206,-0.2228,-0.2237,-0.2247,-0.2369,-0.2323,-0.2456,-0.2457,-0.2382,-0.2461,-0.2463,-0.258,-0.2596,-0.2626,-0.2718,-0.2727,-0.2717,-0.2721,-0.2724,-0.2726,0,0,0,0,0,0,0,-0.2034,-0.2053,-0.2225,-0.223,-0.2242,-0.2262,-0.2283,-0.2348,-0.2473,-0.2389,-0.2398,-0.2412,-0.2586,-0.2619,-0.2633,-0.273,-0.2717,-0.2723,-0.2728,-0.2731,-0.2928,-0.2929,0,0,0,0,0,0,-0.2009,-0.2045,-0.2219,-0.2229,-0.2144,-0.2265,-0.2289,-0.233,-0.2472,-0.2494,-0.241,-0.2417,-0.2605,-0.2624,-0.2641,-0.2733,-0.2724,-0.2731,-0.2735,-0.2927,-0.2928,-0.2929,0,0,0,0,0,0,-0.2004,-0.2024,-0.2213,-0.2137,-0.2162,-0.2267,-0.2313,-0.2333,-0.2395,-0.2487,-0.2511,-0.2456,-0.2607,-0.2631,-0.2752,-0.274,-0.2735,-0.2741,-0.2926,-0.2927,-0.2929,-0.2874,0,0,0,0,0,0,-0.1997,-0.2022,-0.2086,-0.2136,-0.2165,-0.227,-0.2312,-0.2335,-0.2398,-0.241,-0.2533,-0.2554,-0.261,-0.2741,-0.2759,-0.275,-0.2747,-0.2925,-0.2927,-0.2928,-0.2874,-0.2873,-0.2871,0,0,0,0,0,-0.1988,-0.2053,-0.2088,-0.2111,-0.2237,-0.227,-0.2288,-0.2368,-0.2399,-0.243,-0.2534,-0.2551,-0.2762,-0.2749,-0.277,-0.2762,-0.2924,-0.2926,-0.2928,-0.2875,-0.2873,-0.2871,0,0,0,0,0,0,-0.199,-0.2073,-0.2113,-0.2205,-0.2241,-0.2292,-0.2325,-0.2375,-0.2478,-0.2499,-0.2588,-0.2617,-0.2703,-0.2753,-0.2736,-0.2824,-0.2834,-0.2841,-0.2787,-0.2786,-0.2784,-0.2718,-0.2753,0,0,0,0,0,-0.2015,-0.2103,-0.2139,-0.2226,-0.2213,-0.227,-0.2308,-0.2355,-0.2429,-0.2477,-0.2585,-0.2671,-0.2719,-0.2774,-0.2839,-0.2909,-0.2877,-0.2911,-0.2909,-0.2907,-0.2869,-0.2804,-0.2791,-0.2935,-0.2935,-0.2935,0,0,-0.2028,-0.2105,-0.2146,-0.2235,-0.225,-0.2253,-0.2297,-0.2337,-0.2383,-0.2482,-0.2613,-0.2678,-0.2737,-0.281,-0.285,-0.2859,-0.2859,-0.291,-0.2908,-0.2869,-0.2804,-0.2789,-0.2776,-0.2936,-0.2936,-0.2936,0,0,-0.206,-0.2149,-0.2188,-0.2213,-0.2259,-0.2279,-0.2285,-0.2353,-0.2416,-0.2532,-0.259,-0.2661,-0.2798,-0.2823,-0.2842,-0.2873,-0.2846,-0.2894,-0.2844,-0.2782,-0.2767,-0.2754,-0.2719,-0.2703,-0.2901,-0.2901,-0.2901,0,-0.2086,-0.2137,-0.2201,-0.2222,-0.2226,-0.2276,-0.2255,-0.2325,-0.2465,-0.2493,-0.2573,-0.2699,-0.2783,-0.2777,-0.2806,-0.2862,-0.2827,-0.2843,-0.2773,-0.2759,-0.2746,-0.2713,-0.2696,-0.2898,-0.2898,-0.2899,-0.2899,0,-0.2087,-0.2144,-0.2143,-0.2193,-0.2217,-0.2208,-0.2255,-0.2326,-0.2407,-0.2474,-0.2538,-0.2651,-0.2708,-0.2745,-0.2798,-0.2742,-0.2747,-0.2767,-0.2761,-0.2727,-0.2697,-0.2679,-0.2895,-0.2896,-0.2896,-0.2897,0,0,-0.2093,-0.2131,-0.2138,-0.2142,-0.2184,-0.2195,-0.2235,-0.2253,-0.2282,-0.2418,-0.2435,-0.2534,-0.2581,-0.2604,-0.2662,-0.2634,-0.2562,-0.2667,-0.2665,-0.2603,-0.2424,-0.2351,-0.2327,-0.2554,-0.255,-0.2547,-0.2445,0,-0.2055,-0.2058,-0.21,-0.2103,-0.2066,-0.2117,-0.2159,-0.2218,-0.2289,-0.2354,-0.2394,-0.2458,-0.2526,-0.2562,-0.2532,-0.2571,-0.251,-0.2587,-0.249,-0.2487,-0.2401,-0.2301,-0.2132,-0.2017,-0.2429,-0.2426,-0.2424,0,-0.2022,-0.2032,-0.1982,-0.2032,-0.2014,-0.2043,-0.2061,-0.2119,-0.2182,-0.2243,-0.2259,-0.2326,-0.2329,-0.2394,-0.2346,-0.239,-0.238,-0.2391,-0.2387,-0.2312,-0.238,-0.2117,-0.1971,-0.2395,-0.2397,-0.2399,-0.2401,0,-0.1944,-0.197,-0.192,-0.1927,-0.1968,-0.1973,-0.2009,-0.2073,-0.2112,-0.2159,-0.2189,-0.2191,-0.2229,-0.2183,-0.2252,-0.2284,-0.2182,-0.2234,-0.2131,-0.2129,-0.1957,-0.1944,-0.2113,-0.2113,-0.2113,-0.2114,-0.2114,0,-0.1881,-0.187,-0.1887,-0.1859,-0.1853,-0.1918,-0.1925,-0.1977,-0.2029,-0.2041,-0.2123,-0.2122,-0.2174,-0.216,-0.2175,-0.2099,-0.2109,-0.2065,-0.2065,-0.1941,-0.1929,-0.2242,-0.2258,-0.211,-0.2111,-0.2112,-0.2112,0,-0.1809,-0.181,-0.1778,-0.1791,-0.1808,-0.1813,-0.188,-0.1891,-0.1962,-0.1967,-0.1978,-0.2059,-0.2043,-0.2071,-0.2036,-0.2009,-0.1951,-0.1909,-0.1779,-0.1763,-0.1957,-0.1973,-0.1754,-0.175,-0.1746,-0.1743,-0.1741,0,-0.1753,-0.172,-0.1708,-0.1699,-0.1704,-0.1729,-0.1742,-0.1834,-0.184,-0.1915,-0.1895,-0.1922,-0.1933,-0.1873,-0.1782,-0.1709,-0.1837,-0.1525,-0.1535,-0.1881,-0.1905,-0.1926,-0.1946,-0.1311,-0.1305,-0.13,-0.1297,0,-0.1645,-0.1645,-0.1606,-0.158,-0.1586,-0.1596,-0.1622,-0.1641,-0.1726,-0.1759,-0.1801,-0.1831,-0.1749,-0.1608,-0.1505,-0.1449,-0.1527,-0.1424,-0.176,-0.144,-0.1456,-0.1484,-0.1518,-0.1254,-0.1259,-0.1262,-0.1264,-0.1266,-0.1568,-0.1524,-0.1475,-0.1463,-0.1468,-0.1467,-0.1475,-0.15,-0.1536,-0.1565,-0.165,-0.1605,-0.1574,-0.1315,-0.1218,-0.1087,-0.1214,-0.1172,-0.1188,-0.1209,-0.1187,-0.1197,-0.0944,-0.0947,-0.0949,-0.095,-0.0952,0,-0.1445,-0.1412,-0.1374,-0.1348,-0.1319,-0.136,-0.1389,-0.1378,-0.1398,-0.1369,-0.1409,-0.1241,-0.1113,-0.1049,-0.0755,-0.0713,-0.0727,-0.0704,-0.0729,-0.0769,-0.0805,-0.0767,-0.041,-0.0409,-0.0408,-0.0406,0,0,-0.1393,-0.1298,-0.1278,-0.1206,-0.1199,-0.1157,-0.1175,-0.1167,-0.1136,-0.1087,-0.0998,-0.1079,-0.1021,-0.0737,-0.0664,-0.0482,-0.0634,-0.0445,-0.0874,-0.0944,-0.098,-0.1056,-0.1038,0,0,0,0,0]},{"header":{"parameterUnit":"m.s-1","parameterCategory":2,"la1":30.2991,"la2":30.254,"lo1":-89.0895,"lo2":-89.0444,"dy":0.0017,"dx":0.0017,"nx":28,"ny":28,"refTime":"2025-07-23T09:00:00:Z","depth":"2","parameterNumber":3,"parameterNumberName":"V-component_of_CURRENTS"},"data":[0,0,0,0,0,0,0,0,0,0,0,0,0,0,0,0,0,0,0,0,0,0,0,0,0,0,0,0,0,0,0,0,0,0,0,0,0,0,0,0,0,0,0,0,0,0,0,0,0,0,0,0,0,0,0,0,0,0,0.0003,0.0004,0,0.0118,0.0119,0.0121,0.026,0.0262,0.0264,0.0266,0.0649,0.0657,0.0665,0,0,0,0,0,0,0,0,0,0,0,0,0,-0.0033,-0.0033,0.0003,0.0005,0.0006,0.0117,0.0119,0.0121,0.026,0.0262,0.0265,0.0267,0.0646,0.0656,0.0666,0,0,0,0,0,0,0,0,0,0,0,0,0,0.0024,-0.0034,0.0003,0.0087,0.0096,0.0117,0.0119,0.0122,0.0259,0.0262,0.0265,0.0268,0.0643,0.0655,0.0668,0.0685,0,0,0.0706,0.0711,0,0,0,0,0,0,0,0,0.002,0.0025,0.0074,0.0081,0.0091,0.0176,0.0247,0.0323,0.0259,0.0199,0.0266,0.027,0.0512,0.0536,0.055,0.0703,0.0719,0.0707,0.0715,0.072,0.0723,0,0,0,0,0,0,0,0.0016,0.0021,0.0051,0.0074,0.0085,0.014,0.0151,0.0261,0.0344,0.0205,0.0215,0.0223,0.052,0.0537,0.056,0.0725,0.0707,0.0718,0.0725,0.073,0.115,0.1153,0,0,0,0,0,0,-0.0009,0.0017,0.0047,0.0054,0.006,0.0138,0.015,0.0147,0.0338,0.0367,0.022,0.0229,0.0514,0.0546,0.0575,0.0729,0.072,0.0732,0.0739,0.1146,0.1151,0.1154,0,0,0,0,0,0,-0.0011,-0.0008,0.0043,0.0038,0.0048,0.0134,0.0131,0.0148,0.0194,0.0346,0.0382,0.0252,0.0518,0.0557,0.071,0.0741,0.0737,0.0749,0.1142,0.1147,0.1152,0.0962,0,0,0,0,0,0,-0.0013,-0.001,-0.0005,0.0035,0.0047,0.0064,0.0128,0.0148,0.0192,0.0205,0.0384,0.0421,0.0523,0.0691,0.0723,0.0759,0.0758,0.1137,0.1144,0.1151,0.0963,0.096,0.0957,0,0,0,0,0,-0.0014,-0.0025,-0.0006,-0.0002,0.0044,0.0063,0.0075,0.0149,0.019,0.0203,0.0342,0.0417,0.0759,0.0702,0.0739,0.0779,0.1134,0.1142,0.115,0.0965,0.096,0.0957,0,0,0,0,0,0,-0.0033,-0.0011,0.0011,0.001,0.0037,0.0087,0.0099,0.0147,0.0256,0.0284,0.0437,0.0483,0.0651,0.0746,0.0679,0.0935,0.097,0.0986,0.0817,0.0815,0.0811,0.0739,0.0769,0,0,0,0,0,-0.0043,-0.0039,-0.0015,-0.001,-0.0013,0.0042,0.0065,0.0109,0.0197,0.0246,0.0393,0.0558,0.0705,0.0779,0.0938,0.1035,0.1055,0.1105,0.1101,0.1097,0.1073,0.1043,0.1029,0.1181,0.1181,0.1181,0,0,-0.0053,-0.0034,-0.0034,-0.0013,0.0006,0.0002,0.0064,0.0084,0.0116,0.0275,0.0403,0.0562,0.0741,0.0879,0.0961,0.0956,0.1086,0.1107,0.11,0.108,0.1049,0.1033,0.1018,0.1187,0.1186,0.1185,0,0,-0.0081,-0.0062,-0.0079,-0.0066,-0.0041,-0.0015,-0.0011,0.0059,0.0121,0.0237,0.0385,0.0538,0.0768,0.0881,0.0966,0.1039,0.1087,0.1131,0.102,0.099,0.0973,0.0959,0.1011,0.1002,0.1101,0.11,0.11,0,-0.0087,-0.0104,-0.0078,-0.0092,-0.0086,-0.003,-0.005,0.0004,0.0141,0.0187,0.0273,0.0586,0.0757,0.0867,0.0927,0.1021,0.103,0.0995,0.0969,0.0955,0.0943,0.1,0.0992,0.1092,0.1093,0.1094,0.1095,0,-0.0139,-0.0141,-0.0157,-0.0156,-0.0147,-0.0154,-0.0104,-0.0048,0.0047,0.0118,0.028,0.0485,0.0653,0.0758,0.0873,0.0906,0.0955,0.0968,0.0933,0.0912,0.098,0.0975,0.1081,0.1083,0.1086,0.1088,0,0,-0.0177,-0.0191,-0.0193,-0.0199,-0.0182,-0.018,-0.0156,-0.012,-0.0092,0.0059,0.011,0.0371,0.0464,0.0571,0.0725,0.0726,0.0709,0.0803,0.0805,0.0779,0.0678,0.0742,0.0744,0.0672,0.0669,0.0667,0.0772,0,-0.0221,-0.0263,-0.0255,-0.028,-0.0304,-0.0262,-0.024,-0.0191,-0.0103,-0.0023,0.0115,0.0261,0.0388,0.049,0.0494,0.0697,0.0681,0.0683,0.0773,0.0778,0.0767,0.0734,0.0721,0.0812,0.0767,0.0767,0.0766,0,-0.0277,-0.0289,-0.0338,-0.0337,-0.0347,-0.0348,-0.0323,-0.0292,-0.0212,-0.0137,-0.0063,0.0075,0.0188,0.0276,0.0423,0.0408,0.0519,0.0625,0.063,0.0738,0.0828,0.083,0.0806,0.0758,0.0759,0.076,0.076,0,-0.0316,-0.0343,-0.0379,-0.0382,-0.038,-0.0384,-0.0375,-0.0321,-0.029,-0.0216,-0.0169,-0.0071,0.0049,0.0116,0.0387,0.0382,0.0529,0.0544,0.0682,0.0692,0.0729,0.0745,0.0554,0.0554,0.0553,0.0553,0.0553,0,-0.0363,-0.0386,-0.0397,-0.0413,-0.0439,-0.0423,-0.0431,-0.0403,-0.0358,-0.0327,-0.0231,-0.0167,0.0003,0.0138,0.0305,0.0506,0.0446,0.0653,0.0694,0.068,0.069,0.0679,0.0693,0.0557,0.0556,0.0555,0.0555,0,-0.04,-0.0414,-0.0446,-0.0454,-0.046,-0.0474,-0.0475,-0.0468,-0.0426,-0.0388,-0.0366,-0.0226,-0.0038,0.015,0.0354,0.0451,0.0616,0.0689,0.0716,0.0756,0.082,0.0824,0.0814,0.0817,0.0819,0.0821,0.0822,0,-0.0429,-0.0451,-0.0475,-0.0492,-0.0498,-0.0516,-0.0524,-0.0502,-0.0488,-0.0408,-0.0383,-0.0205,-0.0059,0.0263,0.0492,0.0733,0.072,0.0818,0.079,0.0791,0.0832,0.0833,0.0834,0.0806,0.0807,0.0808,0.0809,0,-0.0465,-0.047,-0.049,-0.0524,-0.0543,-0.0564,-0.057,-0.0579,-0.0539,-0.0498,-0.0412,-0.03,0.0038,0.0323,0.065,0.077,0.0772,0.0846,0.0796,0.0738,0.0789,0.0828,0.0828,0.0817,0.0816,0.0816,0.0815,0.0815,-0.048,-0.0498,-0.0519,-0.0551,-0.0575,-0.0596,-0.0626,-0.06,-0.0583,-0.0506,-0.0428,-0.0181,0.0103,0.063,0.0749,0.0877,0.0914,0.092,0.0913,0.0907,0.0883,0.0933,0.099,0.099,0.099,0.099,0.099,0,-0.0487,-0.051,-0.0543,-0.0571,-0.0591,-0.0605,-0.0642,-0.0638,-0.0611,-0.048,-0.0385,0.0003,0.0344,0.0629,0.0861,0.0953,0.0893,0.0918,0.0838,0.0834,0.0828,0.0795,0.0882,0.0881,0.088,0.0879,0,0,-0.0493,-0.0521,-0.0538,-0.0572,-0.0594,-0.0621,-0.0656,-0.0633,-0.0553,-0.0424,-0.0191,0.0103,0.0479,0.0626,0.0734,0.0796,0.0737,0.0761,0.0853,0.0734,0.0723,0.0859,0.0807,0,0,0,0,0]}],[{"header":{"parameterUnit":"m.s-1","parameterCategory":2,"la1":30.2991,"la2":30.254,"lo1":-89.0895,"lo2":-89.0444,"dy":0.0017,"dx":0.0017,"nx":28,"ny":28,"refTime":"2025-07-23T09:00:00:Z","depth":"4","parameterNumber":2,"parameterNumberName":"U-component_of_CURRENTS"},"data":[0,0,0,0,0,0,0,0,0,0,0,0,0,0,0,0,0,0,0,0,0,0,0,0,0,0,0,0,0,0,0,0,0,0,0,0,0,0,0,0,0,0,0,0,0,0,0,0,0,0,0,0,0,0,0,0,0,0,-0.1278,-0.1279,0,-0.1355,-0.1356,-0.1357,-0.1379,-0.1378,-0.1378,-0.1378,-0.1475,-0.1478,-0.148,0,0,0,0,0,0,0,0,0,0,0,0,0,-0.1195,-0.1196,-0.1278,-0.1279,-0.128,-0.1355,-0.1356,-0.1357,-0.1379,-0.1378,-0.1378,-0.1378,-0.1474,-0.1477,-0.1481,0,0,0,0,0,0,0,0,0,0,0,0,0,-0.1245,-0.1196,-0.1277,-0.1302,-0.1306,-0.1355,-0.1356,-0.1357,-0.1379,-0.1378,-0.1378,-0.1378,-0.1473,-0.1477,-0.1481,-0.1511,0,0,-0.1494,-0.1495,0,0,0,0,0,0,0,0,-0.1242,-0.1247,-0.1297,-0.1301,-0.1304,-0.136,-0.1363,-0.1411,-0.1379,-0.1348,-0.1378,-0.1378,-0.144,-0.1447,-0.1458,-0.1516,-0.152,-0.1494,-0.1496,-0.1498,-0.1499,0,0,0,0,0,0,0,-0.1238,-0.1244,-0.1305,-0.1299,-0.1303,-0.1326,-0.1332,-0.1372,-0.1392,-0.135,-0.1353,-0.1366,-0.1442,-0.1454,-0.146,-0.1521,-0.1494,-0.1497,-0.15,-0.1502,-0.1648,-0.165,0,0,0,0,0,0,-0.1233,-0.1241,-0.1303,-0.1308,-0.1275,-0.1328,-0.1334,-0.134,-0.1392,-0.14,-0.1367,-0.1367,-0.1447,-0.1455,-0.1464,-0.1528,-0.1498,-0.1502,-0.1504,-0.1647,-0.1648,-0.165,0,0,0,0,0,0,-0.123,-0.1237,-0.13,-0.1279,-0.1289,-0.1329,-0.1335,-0.1341,-0.1371,-0.1404,-0.1412,-0.1392,-0.1447,-0.1458,-0.1517,-0.1531,-0.1504,-0.1507,-0.1645,-0.1647,-0.1649,-0.1641,0,0,0,0,0,0,-0.1228,-0.1236,-0.1242,-0.1278,-0.129,-0.1337,-0.1336,-0.1343,-0.138,-0.1382,-0.1429,-0.1436,-0.1448,-0.1511,-0.1521,-0.1536,-0.1511,-0.1643,-0.1646,-0.1649,-0.164,-0.1643,-0.1646,0,0,0,0,0,-0.1224,-0.123,-0.1241,-0.125,-0.1296,-0.1338,-0.1347,-0.1372,-0.1382,-0.1397,-0.1434,-0.1436,-0.1535,-0.1516,-0.1528,-0.1544,-0.1642,-0.1645,-0.1648,-0.1638,-0.1642,-0.1646,0,0,0,0,0,0,-0.1199,-0.1235,-0.1247,-0.1264,-0.1304,-0.1343,-0.1364,-0.1385,-0.1426,-0.1434,-0.146,-0.1471,-0.1524,-0.1545,-0.1523,-0.1596,-0.1587,-0.1593,-0.1576,-0.158,-0.1583,-0.1581,-0.1514,0,0,0,0,0,-0.1197,-0.1209,-0.1253,-0.1269,-0.1291,-0.1332,-0.1356,-0.1378,-0.1418,-0.1436,-0.1473,-0.1513,-0.1545,-0.1571,-0.1605,-0.1653,-0.1656,-0.1672,-0.1675,-0.1677,-0.1685,-0.1715,-0.1721,-0.1661,-0.1661,-0.1661,0,0,-0.1193,-0.1214,-0.1222,-0.1265,-0.1297,-0.1336,-0.1345,-0.1388,-0.1423,-0.1442,-0.1504,-0.1528,-0.1562,-0.1607,-0.1632,-0.1627,-0.169,-0.1681,-0.1682,-0.169,-0.1719,-0.1725,-0.173,-0.1663,-0.1663,-0.1662,0,0,-0.1195,-0.1212,-0.123,-0.1264,-0.1318,-0.1347,-0.1365,-0.1422,-0.1448,-0.1511,-0.1525,-0.1561,-0.1629,-0.1644,-0.166,-0.1707,-0.1703,-0.1721,-0.1736,-0.1765,-0.177,-0.1774,-0.1751,-0.1753,-0.1723,-0.1723,-0.1723,0,-0.1193,-0.1216,-0.1244,-0.1277,-0.1311,-0.1355,-0.1395,-0.1429,-0.15,-0.1531,-0.1534,-0.1625,-0.1643,-0.1689,-0.1695,-0.1711,-0.1715,-0.1713,-0.1766,-0.1771,-0.1776,-0.1751,-0.1754,-0.1723,-0.1723,-0.1723,-0.1723,0,-0.121,-0.1239,-0.1256,-0.1309,-0.135,-0.1389,-0.1446,-0.1495,-0.1536,-0.157,-0.1637,-0.1661,-0.1714,-0.1718,-0.1719,-0.1761,-0.1747,-0.1762,-0.1749,-0.1781,-0.1753,-0.1756,-0.1723,-0.1723,-0.1723,-0.1723,0,0,-0.1178,-0.1253,-0.1262,-0.1301,-0.137,-0.1413,-0.1474,-0.1545,-0.1593,-0.1646,-0.17,-0.1739,-0.1754,-0.1774,-0.1778,-0.1793,-0.1801,-0.1791,-0.1792,-0.1753,-0.1833,-0.1681,-0.1669,-0.1831,-0.1832,-0.1833,-0.1787,0,-0.1187,-0.1251,-0.1287,-0.1362,-0.1404,-0.1466,-0.1522,-0.1592,-0.1644,-0.1706,-0.1733,-0.1781,-0.1774,-0.1793,-0.1811,-0.1811,-0.1816,-0.181,-0.1823,-0.1823,-0.1672,-0.167,-0.1838,-0.179,-0.179,-0.1791,-0.1791,0,-0.1185,-0.1235,-0.1304,-0.1401,-0.1428,-0.1481,-0.1587,-0.1641,-0.1723,-0.1761,-0.1812,-0.1834,-0.186,-0.185,-0.1868,-0.1868,-0.1854,-0.1844,-0.1843,-0.171,-0.1676,-0.1764,-0.1796,-0.1796,-0.1795,-0.1795,-0.1795,0,-0.1148,-0.1244,-0.1302,-0.1334,-0.1448,-0.1503,-0.1569,-0.1662,-0.1705,-0.1793,-0.1819,-0.1874,-0.1883,-0.1903,-0.1871,-0.1883,-0.187,-0.1887,-0.1733,-0.1721,-0.1876,-0.1873,-0.1905,-0.1905,-0.1905,-0.1906,-0.1906,0,-0.1123,-0.1177,-0.1297,-0.133,-0.1414,-0.1501,-0.1582,-0.1656,-0.1734,-0.1754,-0.1839,-0.1833,-0.1902,-0.1894,-0.1882,-0.179,-0.1881,-0.1725,-0.1704,-0.1869,-0.1866,-0.1875,-0.1872,-0.1904,-0.1904,-0.1905,-0.1905,0,-0.1062,-0.1136,-0.1218,-0.1352,-0.1394,-0.1459,-0.1573,-0.1615,-0.1705,-0.1728,-0.1748,-0.1808,-0.1783,-0.1817,-0.1819,-0.1768,-0.1723,-0.1673,-0.1807,-0.1797,-0.1552,-0.1549,-0.15,-0.1494,-0.1489,-0.1485,-0.1482,0,-0.1034,-0.1065,-0.1214,-0.1259,-0.1321,-0.1419,-0.1466,-0.1583,-0.1603,-0.1667,-0.1647,-0.1668,-0.1682,-0.1554,-0.1619,-0.1587,-0.1577,-0.1548,-0.1584,-0.1527,-0.1513,-0.1518,-0.1523,-0.1474,-0.1473,-0.1472,-0.147,0,-0.0976,-0.1036,-0.1103,-0.1194,-0.1262,-0.1322,-0.1391,-0.1391,-0.1478,-0.1569,-0.1487,-0.1465,-0.143,-0.1427,-0.1414,-0.1397,-0.1569,-0.1498,-0.1509,-0.1542,-0.1496,-0.1488,-0.1498,-0.1454,-0.1456,-0.1458,-0.1459,0,-0.0931,-0.0962,-0.1047,-0.1119,-0.1191,-0.1198,-0.1252,-0.1248,-0.128,-0.1345,-0.1294,-0.1319,-0.1371,-0.1323,-0.1303,-0.1281,-0.1276,-0.1252,-0.1275,-0.1295,-0.1254,-0.1167,-0.0993,0,0,0,0,0,-0.088,-0.0903,-0.0961,-0.1035,-0.1093,-0.1128,-0.1185,-0.1228,-0.1295,-0.1188,-0.1239,-0.1187,-0.1144,-0.1167,-0.1106,-0.1241,-0.1306,-0.1167,-0.1296,-0.1362,-0.1381,-0.1356,0,0,0,0,0,0,-0.0848,-0.0897,-0.0932,-0.0939,-0.0958,-0.1002,-0.1025,-0.1068,-0.1015,-0.108,-0.1061,-0.1113,-0.1099,-0.1157,-0.1081,-0.1091,-0.1145,-0.1197,-0.1194,-0.1351,-0.1368,-0.1384,-0.1364,0,0,0,0,0]},{"header":{"parameterUnit":"m.s-1","parameterCategory":2,"la1":30.2991,"la2":30.254,"lo1":-89.0895,"lo2":-89.0444,"dy":0.0017,"dx":0.0017,"nx":28,"ny":28,"refTime":"2025-07-23T09:00:00:Z","depth":"4","parameterNumber":3,"parameterNumberName":"V-component_of_CURRENTS"},"data":[0,0,0,0,0,0,0,0,0,0,0,0,0,0,0,0,0,0,0,0,0,0,0,0,0,0,0,0,0,0,0,0,0,0,0,0,0,0,0,0,0,0,0,0,0,0,0,0,0,0,0,0,0,0,0,0,0,0,-0.0147,-0.0147,0,-0.0147,-0.0147,-0.0147,-0.0118,-0.0117,-0.0116,-0.0115,-0.0061,-0.006,-0.006,0,0,0,0,0,0,0,0,0,0,0,0,0,-0.0094,-0.0096,-0.0147,-0.0147,-0.0146,-0.0146,-0.0147,-0.0147,-0.0118,-0.0117,-0.0116,-0.0115,-0.0061,-0.0061,-0.006,0,0,0,0,0,0,0,0,0,0,0,0,0,-0.0109,-0.0096,-0.0147,-0.0131,-0.013,-0.0146,-0.0147,-0.0147,-0.0118,-0.0117,-0.0115,-0.0114,-0.0062,-0.0061,-0.006,-0.0079,0,0,-0.0057,-0.0056,0,0,0,0,0,0,0,0,-0.0108,-0.0111,-0.0134,-0.0132,-0.0131,-0.013,-0.0108,-0.0121,-0.0118,-0.0123,-0.0115,-0.0114,-0.008,-0.0077,-0.0082,-0.0076,-0.0074,-0.0057,-0.0056,-0.0056,-0.0055,0,0,0,0,0,0,0,-0.0107,-0.011,-0.0147,-0.0134,-0.0132,-0.0115,-0.0116,-0.0111,-0.0108,-0.0123,-0.0121,-0.012,-0.0078,-0.0083,-0.008,-0.0073,-0.0057,-0.0056,-0.0055,-0.0055,-0.0064,-0.0065,0,0,0,0,0,0,-0.0109,-0.011,-0.0147,-0.0147,-0.0115,-0.0117,-0.0118,-0.0132,-0.0109,-0.0105,-0.0121,-0.0118,-0.0085,-0.0081,-0.0078,-0.0084,-0.0056,-0.0055,-0.0054,-0.0063,-0.0064,-0.0065,0,0,0,0,0,0,-0.0108,-0.0113,-0.0147,-0.0127,-0.013,-0.0119,-0.0135,-0.0133,-0.013,-0.0108,-0.0102,-0.0119,-0.0084,-0.0079,-0.0074,-0.0082,-0.0054,-0.0053,-0.0062,-0.0064,-0.0065,-0.0106,0,0,0,0,0,0,-0.0107,-0.0113,-0.0125,-0.0128,-0.0131,-0.0158,-0.0136,-0.0134,-0.0132,-0.0128,-0.0105,-0.0099,-0.0083,-0.0076,-0.0073,-0.008,-0.0053,-0.0061,-0.0063,-0.0064,-0.0103,-0.0108,-0.0112,0,0,0,0,0,-0.0105,-0.013,-0.0126,-0.013,-0.0148,-0.0159,-0.016,-0.0148,-0.0133,-0.0139,-0.0123,-0.01,-0.0084,-0.0076,-0.0073,-0.0079,-0.0061,-0.0062,-0.0064,-0.0101,-0.0107,-0.0112,0,0,0,0,0,0,-0.0114,-0.0129,-0.0124,-0.0153,-0.0154,-0.0154,-0.0159,-0.015,-0.0145,-0.0137,-0.0112,-0.0106,-0.0106,-0.0091,-0.0083,-0.0088,-0.0068,-0.0069,-0.0097,-0.0103,-0.0107,-0.0088,-0.0052,0,0,0,0,0,-0.0122,-0.0145,-0.0148,-0.017,-0.0171,-0.0165,-0.0167,-0.0159,-0.0154,-0.015,-0.0136,-0.0121,-0.0115,-0.0106,-0.0101,-0.0103,-0.0042,-0.0106,-0.011,-0.0114,-0.0097,-0.0013,-0.0007,-0.0072,-0.0071,-0.0071,0,0,-0.0132,-0.0142,-0.0155,-0.0173,-0.0172,-0.0184,-0.0163,-0.017,-0.0174,-0.0145,-0.0149,-0.0139,-0.0121,-0.0126,-0.0124,-0.011,-0.0066,-0.0117,-0.012,-0.01,-0.0014,-0.0007,-0.0001,-0.0073,-0.0073,-0.0072,0,0,-0.0159,-0.017,-0.0193,-0.0198,-0.02,-0.0198,-0.0199,-0.02,-0.0193,-0.0201,-0.018,-0.017,-0.0169,-0.0151,-0.0143,-0.0168,-0.0097,-0.0174,-0.0174,-0.0094,-0.0087,-0.008,0.0003,0.0018,-0.0171,-0.0171,-0.0171,0,-0.0166,-0.0197,-0.02,-0.0217,-0.0221,-0.0205,-0.0221,-0.0219,-0.0217,-0.0205,-0.0206,-0.0184,-0.0177,-0.0157,-0.0173,-0.0176,-0.0113,-0.0155,-0.0096,-0.0088,-0.008,0.0003,0.002,-0.0173,-0.0173,-0.0173,-0.0172,0,-0.0205,-0.0226,-0.0239,-0.0257,-0.0263,-0.0274,-0.0268,-0.0266,-0.0258,-0.0246,-0.0228,-0.0217,-0.0191,-0.0201,-0.0198,-0.015,-0.0118,-0.0114,-0.0076,-0.0075,0.0011,0.003,-0.0176,-0.0175,-0.0175,-0.0174,0,0,-0.0226,-0.026,-0.0263,-0.0272,-0.0282,-0.0289,-0.0294,-0.0285,-0.0268,-0.0264,-0.0232,-0.0239,-0.0211,-0.0199,-0.0186,-0.0128,-0.0037,-0.01,-0.0095,-0.0006,0.0159,0.0126,0.0144,-0.0013,-0.0011,-0.0008,0.0197,0,-0.025,-0.0292,-0.03,-0.0328,-0.0344,-0.033,-0.0333,-0.0319,-0.0297,-0.0264,-0.0228,-0.0204,-0.0215,-0.0198,-0.0142,-0.0067,0.001,-0.0092,0.0136,0.0143,0.0124,0.0163,0.0001,0.0211,0.0215,0.0218,0.0221,0,-0.0282,-0.0304,-0.0341,-0.0355,-0.0358,-0.037,-0.0349,-0.0349,-0.0295,-0.0273,-0.0225,-0.0188,-0.0121,-0.0124,0.0038,-0.0022,0.0072,0.0136,0.0146,0.0148,0.0144,0.0211,0.0255,0.0252,0.025,0.0247,0.0245,0,-0.0294,-0.0329,-0.0358,-0.0367,-0.0382,-0.0383,-0.0383,-0.0349,-0.0333,-0.0264,-0.0226,-0.0143,-0.0082,0.0032,0.0143,0.0109,0.0346,0.0319,0.039,0.0389,0.0377,0.0367,0.0471,0.0471,0.0471,0.047,0.047,0,-0.0317,-0.034,-0.0366,-0.0383,-0.0401,-0.04,-0.0396,-0.0378,-0.0327,-0.0278,-0.0227,-0.0149,-0.0034,0.01,0.0191,0.035,0.0395,0.0415,0.0446,0.0351,0.0337,0.0391,0.0378,0.0478,0.0476,0.0475,0.0473,0,-0.0331,-0.0353,-0.0385,-0.0405,-0.0413,-0.0424,-0.0421,-0.0401,-0.0355,-0.0279,-0.0252,-0.0122,0.0055,0.0178,0.0388,0.0418,0.0562,0.0617,0.0527,0.0547,0.0543,0.0526,0.0716,0.0716,0.0717,0.0717,0.0718,0,-0.0343,-0.0365,-0.0404,-0.0422,-0.0436,-0.045,-0.045,-0.0422,-0.0385,-0.025,-0.0196,-0.0018,0.0082,0.0359,0.0469,0.066,0.0665,0.0724,0.0606,0.056,0.0573,0.0554,0.0537,0.0719,0.0719,0.0719,0.0719,0,-0.0358,-0.0375,-0.04,-0.044,-0.0455,-0.0462,-0.045,-0.0421,-0.0346,-0.0304,-0.0121,0.0016,0.0226,0.0389,0.0542,0.0667,0.066,0.073,0.0728,0.0618,0.0566,0.0574,0.0556,0.0721,0.0721,0.0721,0.0721,0,-0.0362,-0.0383,-0.0418,-0.0449,-0.0469,-0.0452,-0.045,-0.0375,-0.033,-0.018,-0.0105,0.0102,0.0226,0.04,0.0544,0.0653,0.0651,0.0626,0.0629,0.0628,0.0504,0.0419,0.0584,0,0,0,0,0,-0.0358,-0.0387,-0.0422,-0.0449,-0.0464,-0.0473,-0.0434,-0.0414,-0.0332,-0.0205,-0.0156,0.0041,0.0267,0.0373,0.0483,0.0526,0.0649,0.0648,0.0616,0.0733,0.073,0.0591,0,0,0,0,0,0,-0.0359,-0.0396,-0.042,-0.0435,-0.0454,-0.0455,-0.043,-0.0374,-0.0298,-0.0203,-0.0069,0.0009,0.0239,0.0207,0.0469,0.0505,0.0481,0.0763,0.0763,0.0734,0.0732,0.073,0.0586,0,0,0,0,0]}]]